Content
SEND FEEDBACK

Daily
Averages
Monthly
Summary
United States of America

MOUNT SHASTA, CALIFORNIA


Home > North America > United States > California
Elevation: 3679 feet     Latitude: 41 19N     Longitude: 122 19W

WEATHER
 
SELECT A DAY
Number of Records: 235,184;   Date Range: 1/1/95 - 11/27/14
 
SHARE

PRINT THIS DATA

[ ← Previous Day ]
WEATHER ALMANAC - NOVEMBER 1, 2013
[ Next Day → ]
[ °C ]   °F
Weather ElementAverageHighLow
Temperature47.1 °F66.9 °F (1:56 pm)30.9 °F (7:56 am)
Dewpoint35.3 °F39.9 °F (10:56 am)28.9 °F (7:56 am)
Humidity68 %92 % (5:56 am)34 % (1:56 pm)
Barometer30.23 in30.31 in (7:56 am)30.12 in (11:56 pm)

Weather ElementAverage
Weather ElementTotal
Precipitation---
Heating Degree Days16.1 (Base 65)
Averaged from 23 records on November 1, 2013
WEATHER CONDITIONS BREAKOUT
WIND DIRECTION BREAKOUT
WEATHER BY HOUR - NOVEMBER 1, 2013
[ °C ]   °F
Local TimeTemperatureDewpointHumidityBarometerVisibilityWind DirectionWind SpeedGust SpeedPrecipitationEventsConditions
1:56 AM35.1 °F30.9 °F85 %30.29 in5.0 miCalmClear
2:56 AM36.0 °F33.1 °F89 %30.29 in10.0 miCalmClear
3:56 AM35.1 °F32.0 °F89 %30.28 in10.0 miCalmClear
4:56 AM33.1 °F30.0 °F89 %30.28 in10.0 miCalmClear
5:56 AM32.0 °F30.0 °F92 %30.29 in10.0 miCalmClear
6:56 AM33.1 °F30.0 °F89 %30.30 in4.0 miCalmClear
7:56 AM30.9 °F28.9 °F92 %30.31 in5.0 miCalmClear
8:56 AM37.9 °F33.1 °F83 %30.31 in10.0 miCalmClear
9:56 AM46.9 °F39.0 °F74 %30.30 in10.0 miCalmClear
10:56 AM55.9 °F39.9 °F55 %30.27 in10.0 miCalmClear
11:56 AM60.1 °F39.0 °F46 %30.25 in10.0 miCalmClear
12:56 PM63.0 °F37.0 °F38 %30.23 in10.0 miCalmClear
1:56 PM66.9 °F37.9 °F34 %30.19 in10.0 miCalmClear
2:56 PM66.9 °F37.9 °F34 %30.17 in10.0 miCalmClear
3:56 PM66.0 °F39.0 °F37 %30.16 in10.0 miCalmClear
4:56 PM63.0 °F37.9 °F40 %30.17 in10.0 miCalmClear
5:56 PM57.0 °F37.9 °F49 %30.17 in10.0 miCalmClear
6:56 PM52.0 °F37.9 °F59 %30.17 in10.0 miCalmClear
7:56 PM48.0 °F37.9 °F68 %30.18 in9.0 miCalmClear
8:56 PM45.0 °F37.9 °F76 %30.17 in7.0 miCalmClear
9:56 PM41.0 °F36.0 °F82 %30.16 in7.0 miCalmClear
10:56 PM39.9 °F35.1 °F83 %30.14 in5.0 miCalmHaze
11:56 PM39.0 °F34.0 °F82 %30.12 in10.0 miCalmClear
Hourly data recorded from KMHS, located miles away from Mount Shasta, California







STORIES FROM OUR PARTNERS